Regional Weather Roundup
Issued by NWS Kansas City/Pleasant Hill, MO

Home | Current Version | Previous Version | Text Only | Print | Product List | Glossary On
Versions: 1 2 3 4 5 6 7 8 9 10 11 12 13 14 15 16 17 18 19 20 21 22 23 24 25 26 27 28 29 30 31 32 33 34 35 36 37 38 39 40 41 42 43 44 45 46 47 48 49 50
000
ASUS43 KEAX 042311
RWREAX

WEATHER ROUNDUP FOR EASTERN KANSAS AND NORTHWEST MISSOURI
NATIONAL WEATHER SERVICE KANSAS CITY/PLEASANT HILL MO
600 PM CDT SAT JUL 04 2015

KSZ040-057-103>105-MOZ028-029-037-043-050000-
...KANSAS CITY METROPOLITAN AREA...

CITY           SKY/WX    TMP DP  RH WIND       PRES   REMARKS
K.C. INTL      PTSUNNY   80  60  50 CALM      29.96F
K.C. DOWNTOWN  MOSUNNY   82  62  50 VRB5      29.95F
LEES SUMMIT    MOSUNNY   80  62  54 SE6       29.97F
OLATHE - IXD   MOSUNNY   82  62  50 S7        29.97F
OLATHE - OJC   MOSUNNY   79  63  57 SE7       29.96F
LAWRENCE       MOSUNNY   80  63  55 SE7       29.95F

$$

MOZ001>008-011>017-020>025-030>033-038>040-044>046-053-054-050000-
...NORTHERN AND CENTRAL MISSOURI...

CITY           SKY/WX    TMP DP  RH WIND       PRES   REMARKS
ST. JOSEPH     MOSUNNY   81  62  52 S8        29.95F
MOSBY          MOCLDY    81  61  50 SE3       29.96F
HARRISONVILLE  MOSUNNY   84  64  51 SE3       29.98F
WARRENSBURG    MOSUNNY   81  63  54 SE3       29.95F
WHITEMAN AFB   SUNNY     82  64  55 VRB1      29.95F
CLINTON        SUNNY     81  66  61 CALM      29.96F
SEDALIA        SUNNY     82  64  54 S3        29.98F
WARSAW         FAIR      82  64  54 E3        29.97F
CHILLICOTHE      N/A     82  62  50 VRB3      29.97F
KIRKSVILLE     SUNNY     81  58  45 VRB5      29.99F

$$

MOZ041-047>049-056>058-063>065-088>090-097-050000-
...EASTERN AND SOUTHERN MISSOURI...

CITY           SKY/WX    TMP DP  RH WIND       PRES   REMARKS
ST. LOUIS INTL MOSUNNY   82  59  45 NE7       29.98S
SPIRIT OF STL  MOSUNNY   81  64  56 E3        29.96F
COLUMBIA       SUNNY     80  63  55 SE6       29.98F
JEFFERSON CITY SUNNY     82  62  50 E3        29.96F
MEXICO         MOSUNNY   84  68  58 SW3       29.97F
ROLLA          SUNNY     80  64  58 E5        29.97F
LEBANON        SUNNY     82  64  54 MISG      29.98S
OSAGE BEACH    SUNNY     82  63  51 CALM      29.97F
SPRINGFIELD    SUNNY     83  65  54 CALM      29.96F
BRANSON        PTSUNNY   81  68  65 CALM      29.98S
JOPLIN         MOSUNNY   86  65  49 E6        29.94F
WEST PLAINS    SUNNY     81  66  60 SE5       29.99S
MALDEN         CLOUDY    82  70  65 E3        29.97R HAZE

$$

IAZ060-094-KSZ022-034>040-054-083-096-NEZ052-066-093-050000-
...KANSAS...SOUTHEAST NEBRASKA AND IOWA...

CITY           SKY/WX    TMP DP  RH WIND       PRES   REMARKS
TOPEKA         MOSUNNY   83  65  54 SE6       29.94F
MANHATTAN      MOSUNNY   86  66  51 E8        29.92F
EMPORIA        MOSUNNY   86  60  41 SE9       29.93F
CHANUTE        MOSUNNY   86  65  49 E6        29.93F
WICHITA        MOSUNNY   90  62  39 SE13      29.90F HX  90
OMAHA          PTSUNNY   81  62  52 S14       29.93F
LINCOLN        SUNNY     83  65  54 S12       29.93F
FALLS CITY     PTSUNNY   82  62  50 SE7       29.94F
LAMONI         SUNNY     81  61  50 S7        29.97F
DES MOINES     PTSUNNY   81  59  47 S8        29.95F

$$



USA.gov is the U.S. government's official web portal to all federal, state and local government web resources and services.